Погода в Ампаре

Шри-Ланка     7°17′51″N   81°40′38″E
темп.,
°C
ветер,
м/с
пор.,
м/с
влажн.,
%
обл.,
%
осадки,
мм/ч
давл.,
гПа
погр.,
м
26 февраля, пт
пт2623:30+24ссз238636 0.0 1012191
02:30+24сз128463 0.0 1010173
05:30+23ссз128759 0.0 1009140
08:30+26ссз22790 0.0 1012397
11:30+29св33661 0.0 10111047
14:30+29св55680 0.0 1008653
17:30+26всв45780 0.0 1008433
20:30+24с018356 0.0 1010149
27 февраля, сб
сб2723:30+23з228768 0.0 101146
02:30+22з229215 0.0 100853
05:30+21з11928 0.0 100847
08:30+25зюз11818 0.0 1011266
11:30+29всв226212 0.0 1010845
14:30+29всв54620 0.0 1006613
17:30+26всв35711 0.0 1007289
20:30+24ююв12770 0.0 1010146
28 февраля, вс
вс2823:30+23зюз11798 0.0 1010160
02:30+21зсз228538 0.0 100848
05:30+21зсз128627 0.0 100848
08:30+25зюз11730 0.0 1011214
11:30+28в335713 0.0 1010970
14:30+29в33550 0.0 1007910
17:30+26в34678 0.0 1007246
20:30+24всв1272100 0.0 1010179
1 марта, пн
пн123:30+23сз127687 0.0 1011194
02:30+22зсз227966 0.0 1009228
05:30+21сз138077 0.0 1009261
08:30+25сз126989 0.0 1013460
11:30+29всв345665 0.0 10121269
14:30+29в43560 0.0 10091092
17:30+27всв34677 0.0 1009323
20:30+24ссв34750 0.0 1011228
2 марта, вт
вт223:30+23ссз23790 0.0 1012255
02:30+22сз238210 0.0 1010269
05:30+21сз238519 0.0 1010178
08:30+25ссз24735 0.0 1013470
11:30+28св446018 0.1 10131282
14:30+28всв446240 0.0 10091097
17:30+26св457121 0.0 1009496
20:30+24ссв23780 0.0 1012224